Terminal Aerodrome Forecast
Issued by NWS

Home | Current Version | Previous Version | Text Only | Print | Product List | Glossary On
Versions: 1 2 3 4 5 6 7 8 9 10 11 12 13 14 15 16 17 18 19 20 21 22 23 24 25
000
FTPA31 PHFO 041100
TAFITO
TAF
PHTO 041137Z 0412/0512 25005KT P6SM FEW020 SCT080
     FM042000 04012KT P6SM FEW025 SCT050
     FM050400 VRB04KT P6SM SCT020 BKN040
     FM050700 24005KT P6SM VCSH SCT020 BKN035=

USA.gov is the U.S. government's official web portal to all federal, state and local government web resources and services.